Time,TemperatureF,DewpointF,PressureIn,WindDirection,WindDirectionDegrees,WindSpeedMPH,WindSpeedGustMPH,Humidity,HourlyPrecipIn,Conditions,Clouds,dailyrainin,SoftwareType,DateUTC
2013-11-20 00:01:00,40.8,29.1,30.34,North,351,0.0,3.0,63,0.00,,,0.00,meteohub,2013-11-20 05:01:00,
2013-11-20 00:02:00,40.8,29.1,30.34,North,355,1.0,3.0,63,0.00,,,0.00,meteohub,2013-11-20 05:02:00,
2013-11-20 00:08:00,40.6,29.1,30.34,North,355,1.0,2.0,63,0.00,,,0.00,meteohub,2013-11-20 05:08:00,
2013-11-20 00:13:00,40.6,29.1,30.34,North,355,1.0,2.0,63,0.00,,,0.00,meteohub,2013-11-20 05:13:00,
2013-11-20 00:19:00,40.6,29.1,30.34,SE,146,0.0,3.0,63,0.00,,,0.00,meteohub,2013-11-20 05:19:00,
2013-11-20 00:24:00,40.6,29.1,30.35,SE,132,0.0,3.0,63,0.00,,,0.00,meteohub,2013-11-20 05:24:00,
2013-11-20 00:29:00,40.6,29.1,30.35,WNW,288,0.0,3.0,63,0.00,,,0.00,meteohub,2013-11-20 05:29:00,
2013-11-20 00:34:00,40.6,28.6,30.35,NW,311,1.0,0.0,62,0.00,,,0.00,meteohub,2013-11-20 05:34:00,
2013-11-20 00:39:00,40.6,28.6,30.35,NW,314,0.0,2.0,62,0.00,,,0.00,meteohub,2013-11-20 05:39:00,
2013-11-20 00:44:00,40.6,28.6,30.35,NW,325,0.0,2.0,62,0.00,,,0.00,meteohub,2013-11-20 05:44:00,
2013-11-20 00:50:00,40.5,28.4,30.35,ENE,57,2.0,2.0,62,0.00,,,0.00,meteohub,2013-11-20 05:50:00,
2013-11-20 00:55:00,40.3,28.8,30.35,NNW,342,2.0,3.0,63,0.00,,,0.00,meteohub,2013-11-20 05:55:00,
2013-11-20 01:00:00,40.1,28.0,30.35,SE,128,0.0,3.0,62,0.00,,,0.00,meteohub,2013-11-20 06:00:00,
2013-11-20 01:05:00,39.9,28.4,30.35,ENE,69,1.0,3.0,63,0.00,,,0.00,meteohub,2013-11-20 06:05:00,
2013-11-20 01:10:00,39.7,28.6,30.35,ENE,69,0.0,3.0,64,0.00,,,0.00,meteohub,2013-11-20 06:10:00,
2013-11-20 01:16:00,39.6,28.4,30.35,NW,322,1.0,3.0,64,0.00,,,0.00,meteohub,2013-11-20 06:16:00,
2013-11-20 01:21:00,39.4,28.6,30.35,NNW,347,1.0,3.0,65,0.00,,,0.00,meteohub,2013-11-20 06:21:00,
2013-11-20 01:26:00,39.2,28.4,30.35,NNW,347,0.0,3.0,65,0.00,,,0.00,meteohub,2013-11-20 06:26:00,
2013-11-20 01:31:00,39.0,28.6,30.35,NNW,332,1.0,3.0,66,0.00,,,0.00,meteohub,2013-11-20 06:31:00,
2013-11-20 01:37:00,38.8,28.4,30.36,WNW,298,1.0,2.0,66,0.00,,,0.00,meteohub,2013-11-20 06:37:00,
2013-11-20 01:42:00,38.8,28.4,30.36,NW,307,0.0,3.0,66,0.00,,,0.00,meteohub,2013-11-20 06:42:00,
2013-11-20 01:47:00,38.8,28.0,30.36,SSE,153,2.0,3.0,65,0.00,,,0.00,meteohub,2013-11-20 06:47:00,
2013-11-20 01:52:00,38.8,28.0,30.36,SSE,148,0.0,3.0,65,0.00,,,0.00,meteohub,2013-11-20 06:52:00,
2013-11-20 01:57:00,38.8,28.0,30.35,NE,47,0.0,3.0,65,0.00,,,0.00,meteohub,2013-11-20 06:57:00,
2013-11-20 02:02:00,39.0,28.2,30.35,NW,313,2.0,3.0,65,0.00,,,0.00,meteohub,2013-11-20 07:02:00,
2013-11-20 02:07:00,39.0,28.2,30.35,NW,313,0.0,3.0,65,0.00,,,0.00,meteohub,2013-11-20 07:07:00,
2013-11-20 02:12:00,39.0,28.2,30.35,NNW,342,2.0,3.0,65,0.00,,,0.00,meteohub,2013-11-20 07:12:00,
2013-11-20 02:17:00,39.0,28.2,30.36,NNW,333,2.0,4.0,65,0.00,,,0.00,meteohub,2013-11-20 07:17:00,
2013-11-20 02:22:00,39.0,27.9,30.36,North,355,2.0,4.0,64,0.00,,,0.00,meteohub,2013-11-20 07:22:00,
2013-11-20 02:27:00,39.0,27.9,30.36,NNW,341,2.0,4.0,64,0.00,,,0.00,meteohub,2013-11-20 07:27:00,
2013-11-20 02:32:00,39.0,28.2,30.37,NW,325,2.0,3.0,65,0.00,,,0.00,meteohub,2013-11-20 07:32:00,
2013-11-20 02:37:00,39.0,28.2,30.36,NW,315,1.0,5.0,65,0.00,,,0.00,meteohub,2013-11-20 07:37:00,
2013-11-20 02:42:00,39.0,27.9,30.36,ESE,105,2.0,5.0,64,0.00,,,0.00,meteohub,2013-11-20 07:42:00,
2013-11-20 02:47:00,39.0,28.2,30.37,WNW,298,1.0,5.0,65,0.00,,,0.00,meteohub,2013-11-20 07:47:00,
2013-11-20 02:52:00,38.8,28.0,30.38,NW,321,2.0,4.0,65,0.00,,,0.00,meteohub,2013-11-20 07:52:00,
2013-11-20 02:57:00,38.8,28.0,30.38,NNW,332,1.0,5.0,65,0.00,,,0.00,meteohub,2013-11-20 07:57:00,
2013-11-20 03:02:00,38.8,28.0,30.38,NW,315,4.0,5.0,65,0.00,,,0.00,meteohub,2013-11-20 08:02:00,
2013-11-20 03:07:00,38.8,28.0,30.38,NW,326,1.0,5.0,65,0.00,,,0.00,meteohub,2013-11-20 08:07:00,
2013-11-20 03:12:00,38.7,27.9,30.36,NW,314,0.0,5.0,65,0.00,,,0.00,meteohub,2013-11-20 08:12:00,
2013-11-20 03:17:00,38.7,27.9,30.37,NW,319,2.0,5.0,65,0.00,,,0.00,meteohub,2013-11-20 08:17:00,
2013-11-20 03:22:00,38.7,27.5,30.37,NW,324,3.0,4.0,64,0.00,,,0.00,meteohub,2013-11-20 08:22:00,
2013-11-20 03:27:00,38.5,27.7,30.37,NW,319,1.0,3.0,65,0.00,,,0.00,meteohub,2013-11-20 08:27:00,
2013-11-20 03:32:00,38.3,27.9,30.38,NW,323,3.0,4.0,66,0.00,,,0.00,meteohub,2013-11-20 08:32:00,
2013-11-20 03:37:00,38.1,27.9,30.37,NW,323,1.0,4.0,66,0.00,,,0.00,meteohub,2013-11-20 08:37:00,
2013-11-20 03:42:00,37.9,27.7,30.36,NW,323,0.0,4.0,66,0.00,,,0.00,meteohub,2013-11-20 08:42:00,
2013-11-20 03:47:00,37.9,27.7,30.36,NW,307,2.0,4.0,66,0.00,,,0.00,meteohub,2013-11-20 08:47:00,
2013-11-20 03:52:00,37.9,27.7,30.36,NW,306,2.0,6.0,66,0.00,,,0.00,meteohub,2013-11-20 08:52:00,
2013-11-20 03:57:00,37.9,27.7,30.36,NW,304,3.0,6.0,66,0.00,,,0.00,meteohub,2013-11-20 08:57:00,
2013-11-20 04:02:00,37.8,27.5,30.37,NW,319,1.0,6.0,66,0.00,,,0.00,meteohub,2013-11-20 09:02:00,
2013-11-20 04:07:00,37.8,27.9,30.37,NW,317,2.0,4.0,67,0.00,,,0.00,meteohub,2013-11-20 09:07:00,
2013-11-20 04:12:00,37.6,27.7,30.37,NW,317,1.0,4.0,67,0.00,,,0.00,meteohub,2013-11-20 09:12:00,
2013-11-20 04:17:00,37.4,27.5,30.37,NNW,338,1.0,4.0,67,0.00,,,0.00,meteohub,2013-11-20 09:17:00,
2013-11-20 04:22:00,37.2,27.3,30.37,NW,315,1.0,4.0,67,0.00,,,0.00,meteohub,2013-11-20 09:22:00,
2013-11-20 04:27:00,37.2,27.3,30.38,NW,317,3.0,4.0,67,0.00,,,0.00,meteohub,2013-11-20 09:27:00,
2013-11-20 04:32:00,37.2,27.7,30.38,NW,320,2.0,4.0,68,0.00,,,0.00,meteohub,2013-11-20 09:32:00,
2013-11-20 04:37:00,37.0,27.5,30.38,NW,323,3.0,4.0,68,0.00,,,0.00,meteohub,2013-11-20 09:37:00,
2013-11-20 04:42:00,36.9,27.3,30.38,NW,321,3.0,4.0,68,0.00,,,0.00,meteohub,2013-11-20 09:42:00,
2013-11-20 04:47:00,36.7,27.5,30.38,NW,321,3.0,4.0,69,0.00,,,0.00,meteohub,2013-11-20 09:47:00,
2013-11-20 04:52:00,36.5,27.3,30.38,NW,321,3.0,4.0,69,0.00,,,0.00,meteohub,2013-11-20 09:52:00,
2013-11-20 04:57:00,36.3,27.5,30.39,NW,323,3.0,4.0,70,0.00,,,0.00,meteohub,2013-11-20 09:57:00,
2013-11-20 05:02:00,36.3,27.5,30.39,NW,321,2.0,5.0,70,0.00,,,0.00,meteohub,2013-11-20 10:02:00,
2013-11-20 05:07:00,36.3,27.5,30.40,NW,321,2.0,5.0,70,0.00,,,0.00,meteohub,2013-11-20 10:07:00,
2013-11-20 05:12:00,36.1,27.3,30.40,NW,323,3.0,5.0,70,0.00,,,0.00,meteohub,2013-11-20 10:12:00,
2013-11-20 05:17:00,36.1,27.3,30.40,NNW,327,2.0,4.0,70,0.00,,,0.00,meteohub,2013-11-20 10:17:00,
2013-11-20 05:22:00,36.1,27.3,30.40,NW,323,3.0,5.0,70,0.00,,,0.00,meteohub,2013-11-20 10:22:00,
2013-11-20 05:27:00,36.1,27.3,30.40,NW,324,3.0,5.0,70,0.00,,,0.00,meteohub,2013-11-20 10:27:00,
2013-11-20 05:32:00,36.0,27.5,30.40,NW,325,4.0,5.0,71,0.00,,,0.00,meteohub,2013-11-20 10:32:00,
2013-11-20 05:37:00,36.0,27.5,30.40,NW,315,3.0,5.0,71,0.00,,,0.00,meteohub,2013-11-20 10:37:00,
2013-11-20 05:42:00,35.8,27.3,30.40,NW,321,3.0,5.0,71,0.00,,,0.00,meteohub,2013-11-20 10:42:00,
2013-11-20 05:47:00,35.8,27.3,30.39,NNW,327,2.0,5.0,71,0.00,,,0.00,meteohub,2013-11-20 10:47:00,
2013-11-20 05:52:00,35.8,27.3,30.38,NNW,327,1.0,5.0,71,0.00,,,0.00,meteohub,2013-11-20 10:52:00,
2013-11-20 05:57:00,35.8,27.3,30.38,NW,324,3.0,4.0,71,0.00,,,0.00,meteohub,2013-11-20 10:57:00,
2013-11-20 06:02:00,35.8,27.3,30.38,NW,317,2.0,4.0,71,0.00,,,0.00,meteohub,2013-11-20 11:02:00,
2013-11-20 06:07:00,35.8,27.3,30.40,NW,308,1.0,4.0,71,0.00,,,0.00,meteohub,2013-11-20 11:07:00,
2013-11-20 06:12:00,35.8,27.3,30.40,NNW,337,4.0,4.0,71,0.00,,,0.00,meteohub,2013-11-20 11:12:00,
2013-11-20 06:17:00,35.8,27.3,30.40,NNW,335,2.0,5.0,71,0.00,,,0.00,meteohub,2013-11-20 11:17:00,
2013-11-20 06:22:00,35.8,27.3,30.40,NNW,332,3.0,5.0,71,0.00,,,0.00,meteohub,2013-11-20 11:22:00,
2013-11-20 06:27:00,35.8,27.3,30.40,NW,314,5.0,5.0,71,0.00,,,0.00,meteohub,2013-11-20 11:27:00,
2013-11-20 06:32:00,35.8,27.3,30.40,NW,322,5.0,6.0,71,0.00,,,0.00,meteohub,2013-11-20 11:32:00,
2013-11-20 06:37:00,35.8,27.7,30.41,NNW,331,4.0,6.0,72,0.00,,,0.00,meteohub,2013-11-20 11:37:00,
2013-11-20 06:42:00,35.6,27.5,30.41,NW,324,3.0,6.0,72,0.00,,,0.00,meteohub,2013-11-20 11:42:00,
2013-11-20 06:47:00,35.6,27.5,30.41,NW,309,3.0,6.0,72,0.00,,,0.00,meteohub,2013-11-20 11:47:00,
2013-11-20 06:52:00,35.4,27.3,30.42,NW,321,3.0,6.0,72,0.00,,,0.00,meteohub,2013-11-20 11:52:00,
2013-11-20 06:57:00,35.4,27.3,30.42,NW,319,3.0,5.0,72,0.00,,,0.00,meteohub,2013-11-20 11:57:00,
2013-11-20 07:02:00,35.4,27.3,30.43,NW,318,3.0,5.0,72,0.00,,,0.00,meteohub,2013-11-20 12:02:00,
2013-11-20 07:07:00,35.2,27.5,30.43,NW,321,3.0,5.0,73,0.00,,,0.00,meteohub,2013-11-20 12:07:00,
2013-11-20 07:12:00,35.2,27.5,30.44,NW,318,3.0,5.0,73,0.00,,,0.00,meteohub,2013-11-20 12:12:00,
2013-11-20 07:17:00,35.2,27.5,30.44,NW,316,2.0,5.0,73,0.00,,,0.00,meteohub,2013-11-20 12:17:00,
2013-11-20 07:22:00,35.2,27.5,30.44,NW,316,3.0,5.0,73,0.00,,,0.00,meteohub,2013-11-20 12:22:00,
2013-11-20 07:27:00,35.2,27.5,30.44,NNW,331,4.0,4.0,73,0.00,,,0.00,meteohub,2013-11-20 12:27:00,
2013-11-20 07:32:00,35.2,27.5,30.43,NW,319,3.0,6.0,73,0.00,,,0.00,meteohub,2013-11-20 12:32:00,
2013-11-20 07:37:00,35.2,27.5,30.44,NW,315,4.0,6.0,73,0.00,,,0.00,meteohub,2013-11-20 12:37:00,
2013-11-20 07:42:00,35.4,27.7,30.44,NW,304,4.0,6.0,73,0.00,,,0.00,meteohub,2013-11-20 12:42:00,
2013-11-20 07:47:00,35.4,27.7,30.44,NW,318,4.0,7.0,73,0.00,,,0.00,meteohub,2013-11-20 12:47:00,
2013-11-20 07:52:00,35.6,27.9,30.44,NW,320,4.0,7.0,73,0.00,,,0.00,meteohub,2013-11-20 12:52:00,
2013-11-20 07:57:00,35.6,27.9,30.44,NNW,336,5.0,7.0,73,0.00,,,0.00,meteohub,2013-11-20 12:57:00,
2013-11-20 08:02:00,35.8,28.0,30.45,NW,318,4.0,8.0,73,0.00,,,0.00,meteohub,2013-11-20 13:02:00,
2013-11-20 08:07:00,36.0,28.2,30.45,NW,319,4.0,8.0,73,0.00,,,0.00,meteohub,2013-11-20 13:07:00,
2013-11-20 08:12:00,36.1,28.0,30.45,NW,321,3.0,6.0,72,0.00,,,0.00,meteohub,2013-11-20 13:12:00,
2013-11-20 08:17:00,36.7,28.6,30.45,NW,315,4.0,7.0,72,0.00,,,0.00,meteohub,2013-11-20 13:17:00,
2013-11-20 08:22:00,36.9,28.4,30.45,NNW,339,5.0,8.0,71,0.00,,,0.00,meteohub,2013-11-20 13:22:00,
2013-11-20 08:27:00,37.2,28.4,30.45,NNW,338,3.0,8.0,70,0.00,,,0.00,meteohub,2013-11-20 13:27:00,
2013-11-20 08:32:00,37.6,28.4,30.45,NW,319,2.0,9.0,69,0.00,,,0.00,meteohub,2013-11-20 13:32:00,
2013-11-20 08:37:00,38.1,28.6,30.45,NNW,346,4.0,9.0,68,0.00,,,0.00,meteohub,2013-11-20 13:37:00,
2013-11-20 08:42:00,38.7,28.6,30.46,NW,310,5.0,9.0,67,0.00,,,0.00,meteohub,2013-11-20 13:42:00,
2013-11-20 08:47:00,38.7,28.6,30.46,NNW,331,2.0,7.0,67,0.00,,,0.00,meteohub,2013-11-20 13:47:00,
2013-11-20 08:52:00,38.8,28.8,30.46,North,351,3.0,8.0,67,0.00,,,0.00,meteohub,2013-11-20 13:52:00,
2013-11-20 08:58:00,39.2,28.8,30.46,West,259,3.0,8.0,66,0.00,,,0.00,meteohub,2013-11-20 13:58:00,
2013-11-20 09:03:00,39.4,28.6,30.46,NNW,337,4.0,7.0,65,0.00,,,0.00,meteohub,2013-11-20 14:03:00,
2013-11-20 09:08:00,39.6,28.8,30.47,WSW,244,3.0,9.0,65,0.00,,,0.00,meteohub,2013-11-20 14:08:00,
2013-11-20 09:13:00,39.9,28.8,30.47,ESE,102,4.0,9.0,64,0.00,,,0.00,meteohub,2013-11-20 14:13:00,
2013-11-20 09:18:00,40.5,28.9,30.47,NNW,335,1.0,9.0,63,0.00,,,0.00,meteohub,2013-11-20 14:18:00,
2013-11-20 09:24:00,40.6,28.6,30.47,NNE,22,2.0,8.0,62,0.00,,,0.00,meteohub,2013-11-20 14:24:00,
2013-11-20 09:29:00,41.2,29.1,30.47,NW,319,6.0,8.0,62,0.00,,,0.00,meteohub,2013-11-20 14:29:00,
2013-11-20 09:34:00,41.2,29.1,30.47,NNW,329,5.0,6.0,62,0.00,,,0.00,meteohub,2013-11-20 14:34:00,
2013-11-20 09:39:00,41.2,28.8,30.47,NNW,336,4.0,8.0,61,0.00,,,0.00,meteohub,2013-11-20 14:39:00,
2013-11-20 09:44:00,41.4,28.9,30.48,NW,313,2.0,8.0,61,0.00,,,0.00,meteohub,2013-11-20 14:44:00,
2013-11-20 09:50:00,42.3,29.3,30.48,East,92,1.0,8.0,60,0.00,,,0.00,meteohub,2013-11-20 14:50:00,
2013-11-20 09:55:00,42.6,28.9,30.48,SE,140,4.0,8.0,58,0.00,,,0.00,meteohub,2013-11-20 14:55:00,
2013-11-20 10:00:00,42.6,28.9,30.48,NNW,331,3.0,6.0,58,0.00,,,0.00,meteohub,2013-11-20 15:00:00,
2013-11-20 10:05:00,42.4,29.1,30.48,NW,325,5.0,8.0,59,0.00,,,0.00,meteohub,2013-11-20 15:05:00,
2013-11-20 10:11:00,43.0,29.3,30.48,SE,130,2.0,8.0,58,0.00,,,0.00,meteohub,2013-11-20 15:11:00,
2013-11-20 10:16:00,43.3,28.8,30.48,NW,311,5.0,8.0,56,0.00,,,0.00,meteohub,2013-11-20 15:16:00,
2013-11-20 10:21:00,43.3,29.1,30.48,NNW,328,4.0,6.0,57,0.00,,,0.00,meteohub,2013-11-20 15:21:00,
2013-11-20 10:26:00,43.9,29.1,30.48,NNW,333,1.0,6.0,56,0.00,,,0.00,meteohub,2013-11-20 15:26:00,
2013-11-20 10:32:00,43.9,29.1,30.48,NNE,15,3.0,8.0,56,0.00,,,0.00,meteohub,2013-11-20 15:32:00,
2013-11-20 10:37:00,44.1,29.3,30.47,NW,321,7.0,8.0,56,0.00,,,0.00,meteohub,2013-11-20 15:37:00,
2013-11-20 10:42:00,44.2,29.1,30.48,NW,311,2.0,9.0,55,0.00,,,0.00,meteohub,2013-11-20 15:42:00,
2013-11-20 10:47:00,44.4,28.8,30.47,North,355,4.0,9.0,54,0.00,,,0.00,meteohub,2013-11-20 15:47:00,
2013-11-20 10:52:00,44.2,28.6,30.47,NW,306,1.0,9.0,54,0.00,,,0.00,meteohub,2013-11-20 15:52:00,
2013-11-20 10:57:00,44.8,29.7,30.47,NNE,27,3.0,6.0,55,0.00,,,0.00,meteohub,2013-11-20 15:57:00,
2013-11-20 11:02:00,45.1,28.9,30.46,SW,228,0.0,6.0,53,0.00,,,0.00,meteohub,2013-11-20 16:02:00,
2013-11-20 11:07:00,45.3,29.1,30.46,NE,42,2.0,5.0,53,0.00,,,0.00,meteohub,2013-11-20 16:07:00,
2013-11-20 11:12:00,45.1,29.5,30.46,West,270,3.0,8.0,54,0.00,,,0.00,meteohub,2013-11-20 16:12:00,
2013-11-20 11:17:00,45.5,29.3,30.46,ESE,111,2.0,8.0,53,0.00,,,0.00,meteohub,2013-11-20 16:17:00,
2013-11-20 11:22:00,46.0,30.4,30.46,WNW,294,7.0,8.0,54,0.00,,,0.00,meteohub,2013-11-20 16:22:00,
2013-11-20 11:27:00,45.9,29.7,30.46,North,355,2.0,7.0,53,0.00,,,0.00,meteohub,2013-11-20 16:27:00,
2013-11-20 11:32:00,45.9,29.7,30.45,NW,304,1.0,8.0,53,0.00,,,0.00,meteohub,2013-11-20 16:32:00,
2013-11-20 11:37:00,46.2,30.0,30.45,NW,323,2.0,8.0,53,0.00,,,0.00,meteohub,2013-11-20 16:37:00,
2013-11-20 11:42:00,46.8,30.0,30.45,North,11,3.0,8.0,52,0.00,,,0.00,meteohub,2013-11-20 16:42:00,
2013-11-20 11:47:00,46.4,30.2,30.45,North,355,2.0,6.0,53,0.00,,,0.00,meteohub,2013-11-20 16:47:00,
2013-11-20 11:52:00,46.8,30.0,30.45,East,101,2.0,7.0,52,0.00,,,0.00,meteohub,2013-11-20 16:52:00,
2013-11-20 11:57:00,47.1,30.4,30.45,ENE,76,4.0,7.0,52,0.00,,,0.00,meteohub,2013-11-20 16:57:00,
2013-11-20 12:02:00,46.9,30.2,30.44,East,81,2.0,7.0,52,0.00,,,0.00,meteohub,2013-11-20 17:02:00,
2013-11-20 12:07:00,46.8,30.6,30.44,ESE,114,0.0,7.0,53,0.00,,,0.00,meteohub,2013-11-20 17:07:00,
2013-11-20 12:12:00,46.6,30.4,30.44,ENE,67,0.0,7.0,53,0.00,,,0.00,meteohub,2013-11-20 17:12:00,
2013-11-20 12:17:00,46.8,30.6,30.44,ESE,105,2.0,5.0,53,0.00,,,0.00,meteohub,2013-11-20 17:17:00,
2013-11-20 12:22:00,47.3,30.6,30.43,NE,43,2.0,4.0,52,0.00,,,0.00,meteohub,2013-11-20 17:22:00,
2013-11-20 12:27:00,46.9,30.2,30.44,WNW,299,1.0,4.0,52,0.00,,,0.00,meteohub,2013-11-20 17:27:00,
2013-11-20 12:32:00,47.8,31.1,30.43,ENE,75,2.0,5.0,52,0.00,,,0.00,meteohub,2013-11-20 17:32:00,
2013-11-20 12:37:00,48.4,31.1,30.43,ESE,103,2.0,6.0,51,0.00,,,0.00,meteohub,2013-11-20 17:37:00,
2013-11-20 12:42:00,48.6,31.3,30.43,NE,44,2.0,6.0,51,0.00,,,0.00,meteohub,2013-11-20 17:42:00,
2013-11-20 12:47:00,48.6,30.7,30.43,ENE,76,0.0,6.0,50,0.00,,,0.00,meteohub,2013-11-20 17:47:00,
2013-11-20 12:52:00,48.4,30.6,30.43,NE,34,3.0,7.0,50,0.00,,,0.00,meteohub,2013-11-20 17:52:00,
2013-11-20 12:57:00,48.2,30.9,30.43,East,93,0.0,7.0,51,0.00,,,0.00,meteohub,2013-11-20 17:57:00,
2013-11-20 13:02:00,48.0,30.7,30.43,NE,38,3.0,8.0,51,0.00,,,0.00,meteohub,2013-11-20 18:02:00,
2013-11-20 13:07:00,48.6,30.7,30.43,NNE,32,2.0,8.0,50,0.00,,,0.00,meteohub,2013-11-20 18:07:00,
2013-11-20 13:12:00,48.4,30.6,30.43,ENE,71,2.0,8.0,50,0.00,,,0.00,meteohub,2013-11-20 18:12:00,
2013-11-20 13:17:00,48.4,31.1,30.43,East,83,3.0,7.0,51,0.00,,,0.00,meteohub,2013-11-20 18:17:00,
2013-11-20 13:22:00,48.6,30.7,30.42,NE,55,3.0,6.0,50,0.00,,,0.00,meteohub,2013-11-20 18:22:00,
2013-11-20 13:27:00,48.7,31.5,30.42,East,82,1.0,6.0,51,0.00,,,0.00,meteohub,2013-11-20 18:27:00,
2013-11-20 13:32:00,49.1,31.3,30.42,NW,317,3.0,5.0,50,0.00,,,0.00,meteohub,2013-11-20 18:32:00,
2013-11-20 13:37:00,49.3,32.0,30.42,NNE,15,3.0,6.0,51,0.00,,,0.00,meteohub,2013-11-20 18:37:00,
2013-11-20 13:42:00,48.9,31.1,30.42,ESE,121,2.0,6.0,50,0.00,,,0.00,meteohub,2013-11-20 18:42:00,
2013-11-20 13:47:00,49.1,31.8,30.41,NNE,12,4.0,6.0,51,0.00,,,0.00,meteohub,2013-11-20 18:47:00,
2013-11-20 13:52:00,49.1,31.3,30.41,NNW,329,3.0,6.0,50,0.00,,,0.00,meteohub,2013-11-20 18:52:00,
2013-11-20 13:57:00,48.7,31.5,30.41,SE,131,0.0,6.0,51,0.00,,,0.00,meteohub,2013-11-20 18:57:00,
2013-11-20 14:02:00,48.9,31.1,30.41,East,86,6.0,6.0,50,0.00,,,0.00,meteohub,2013-11-20 19:02:00,
2013-11-20 14:07:00,48.7,31.5,30.41,East,84,0.0,6.0,51,0.00,,,0.00,meteohub,2013-11-20 19:07:00,
2013-11-20 14:12:00,48.7,31.5,30.41,NNW,345,2.0,6.0,51,0.00,,,0.00,meteohub,2013-11-20 19:12:00,
2013-11-20 14:17:00,48.9,31.6,30.41,East,80,1.0,6.0,51,0.00,,,0.00,meteohub,2013-11-20 19:17:00,
2013-11-20 14:22:00,49.1,31.3,30.41,ENE,69,1.0,4.0,50,0.00,,,0.00,meteohub,2013-11-20 19:22:00,
2013-11-20 14:27:00,49.3,31.5,30.42,NE,51,2.0,5.0,50,0.00,,,0.00,meteohub,2013-11-20 19:27:00,
2013-11-20 14:32:00,49.1,31.8,30.42,North,355,0.0,5.0,51,0.00,,,0.00,meteohub,2013-11-20 19:32:00,
2013-11-20 14:37:00,49.1,31.3,30.42,NNE,24,1.0,5.0,50,0.00,,,0.00,meteohub,2013-11-20 19:37:00,
2013-11-20 14:42:00,49.1,31.8,30.42,NNE,24,1.0,5.0,51,0.00,,,0.00,meteohub,2013-11-20 19:42:00,
2013-11-20 14:47:00,49.1,31.8,30.42,East,86,2.0,5.0,51,0.00,,,0.00,meteohub,2013-11-20 19:47:00,
2013-11-20 14:52:00,48.9,31.6,30.42,ENE,61,2.0,5.0,51,0.00,,,0.00,meteohub,2013-11-20 19:52:00,
2013-11-20 14:57:00,49.1,31.8,30.42,NE,44,5.0,5.0,51,0.00,,,0.00,meteohub,2013-11-20 19:57:00,
2013-11-20 15:02:00,49.1,31.8,30.42,ENE,59,2.0,5.0,51,0.00,,,0.00,meteohub,2013-11-20 20:02:00,
2013-11-20 15:07:00,49.3,32.0,30.42,ENE,59,0.0,5.0,51,0.00,,,0.00,meteohub,2013-11-20 20:07:00,
2013-11-20 15:12:00,49.3,32.0,30.42,ESE,112,1.0,5.0,51,0.00,,,0.00,meteohub,2013-11-20 20:12:00,
2013-11-20 15:17:00,49.1,31.8,30.42,East,82,1.0,5.0,51,0.00,,,0.00,meteohub,2013-11-20 20:17:00,
2013-11-20 15:22:00,48.9,31.6,30.42,NW,306,0.0,7.0,51,0.00,,,0.00,meteohub,2013-11-20 20:22:00,
2013-11-20 15:27:00,49.1,31.8,30.42,WSW,257,0.0,7.0,51,0.00,,,0.00,meteohub,2013-11-20 20:27:00,
2013-11-20 15:32:00,48.9,31.6,30.42,NNE,22,1.0,7.0,51,0.00,,,0.00,meteohub,2013-11-20 20:32:00,
2013-11-20 15:37:00,48.9,32.0,30.42,NNW,331,3.0,5.0,52,0.00,,,0.00,meteohub,2013-11-20 20:37:00,
2013-11-20 15:42:00,48.9,31.6,30.42,NNW,339,4.0,4.0,51,0.00,,,0.00,meteohub,2013-11-20 20:42:00,
2013-11-20 15:47:00,48.9,32.0,30.42,NW,320,1.0,4.0,52,0.00,,,0.00,meteohub,2013-11-20 20:47:00,
2013-11-20 15:52:00,49.3,32.4,30.42,SE,126,0.0,4.0,52,0.00,,,0.00,meteohub,2013-11-20 20:52:00,
2013-11-20 15:57:00,49.5,32.0,30.42,North,355,3.0,4.0,51,0.00,,,0.00,meteohub,2013-11-20 20:57:00,
2013-11-20 16:02:00,48.9,32.0,30.43,NE,39,1.0,4.0,52,0.00,,,0.00,meteohub,2013-11-20 21:02:00,
2013-11-20 16:07:00,48.7,31.8,30.43,ENE,76,2.0,4.0,52,0.00,,,0.00,meteohub,2013-11-20 21:07:00,
2013-11-20 16:12:00,48.6,32.2,30.43,NNE,29,1.0,3.0,53,0.00,,,0.00,meteohub,2013-11-20 21:12:00,
2013-11-20 16:17:00,48.6,32.2,30.43,NNW,340,0.0,3.0,53,0.00,,,0.00,meteohub,2013-11-20 21:17:00,
2013-11-20 16:22:00,48.4,32.0,30.43,NE,46,1.0,3.0,53,0.00,,,0.00,meteohub,2013-11-20 21:22:00,
2013-11-20 16:27:00,48.0,32.2,30.43,ENE,59,0.0,3.0,54,0.00,,,0.00,meteohub,2013-11-20 21:27:00,
2013-11-20 16:32:00,47.8,32.5,30.43,ENE,59,0.0,3.0,55,0.00,,,0.00,meteohub,2013-11-20 21:32:00,
2013-11-20 16:37:00,47.8,32.5,30.44,NNW,338,0.0,3.0,55,0.00,,,0.00,meteohub,2013-11-20 21:37:00,
2013-11-20 16:42:00,47.7,32.4,30.44,NNW,338,0.0,1.0,55,0.00,,,0.00,meteohub,2013-11-20 21:42:00,
2013-11-20 16:47:00,47.5,32.2,30.44,NNW,338,0.0,0.0,55,0.00,,,0.00,meteohub,2013-11-20 21:47:00,
2013-11-20 16:52:00,47.3,32.4,30.44,NNW,338,0.0,0.0,56,0.00,,,0.00,meteohub,2013-11-20 21:52:00,
2013-11-20 16:57:00,47.3,32.4,30.44,NNW,338,0.0,0.0,56,0.00,,,0.00,meteohub,2013-11-20 21:57:00,
2013-11-20 17:02:00,47.1,32.2,30.44,NNW,338,0.0,0.0,56,0.00,,,0.00,meteohub,2013-11-20 22:02:00,
2013-11-20 17:07:00,46.9,32.5,30.44,NNW,338,0.0,0.0,57,0.00,,,0.00,meteohub,2013-11-20 22:07:00,
2013-11-20 17:12:00,46.8,32.4,30.44,NNW,336,0.0,0.0,57,0.00,,,0.00,meteohub,2013-11-20 22:12:00,
2013-11-20 17:17:00,46.8,32.7,30.44,NNW,336,0.0,0.0,58,0.00,,,0.00,meteohub,2013-11-20 22:17:00,
2013-11-20 17:22:00,46.8,32.4,30.44,NNW,336,0.0,0.0,57,0.00,,,0.00,meteohub,2013-11-20 22:22:00,
2013-11-20 17:27:00,46.4,32.4,30.44,NW,323,1.0,0.0,58,0.00,,,0.00,meteohub,2013-11-20 22:27:00,
2013-11-20 17:32:00,46.2,32.7,30.44,NW,323,0.0,3.0,59,0.00,,,0.00,meteohub,2013-11-20 22:32:00,
2013-11-20 17:37:00,46.0,32.5,30.44,NW,323,1.0,3.0,59,0.00,,,0.00,meteohub,2013-11-20 22:37:00,
2013-11-20 17:42:00,46.0,32.5,30.44,NW,323,2.0,2.0,59,0.00,,,0.00,meteohub,2013-11-20 22:42:00,
2013-11-20 17:47:00,45.9,32.4,30.44,NW,323,0.0,2.0,59,0.00,,,0.00,meteohub,2013-11-20 22:47:00,
2013-11-20 17:52:00,45.7,32.2,30.44,NW,323,1.0,2.0,59,0.00,,,0.00,meteohub,2013-11-20 22:52:00,
2013-11-20 17:57:00,45.7,32.5,30.44,NW,323,2.0,3.0,60,0.00,,,0.00,meteohub,2013-11-20 22:57:00,
2013-11-20 18:02:00,45.5,32.4,30.44,NW,324,0.0,3.0,60,0.00,,,0.00,meteohub,2013-11-20 23:02:00,
2013-11-20 18:07:00,45.3,32.2,30.44,NW,324,1.0,3.0,60,0.00,,,0.00,meteohub,2013-11-20 23:07:00,
2013-11-20 18:12:00,45.1,32.5,30.44,NW,324,2.0,2.0,61,0.00,,,0.00,meteohub,2013-11-20 23:12:00,
2013-11-20 18:17:00,45.0,32.4,30.45,NW,323,2.0,2.0,61,0.00,,,0.00,meteohub,2013-11-20 23:17:00,
2013-11-20 18:22:00,45.0,32.4,30.45,NW,323,2.0,3.0,61,0.00,,,0.00,meteohub,2013-11-20 23:22:00,
2013-11-20 18:27:00,44.8,32.5,30.45,NW,323,2.0,3.0,62,0.00,,,0.00,meteohub,2013-11-20 23:27:00,
2013-11-20 18:32:00,44.8,32.5,30.45,NW,324,2.0,3.0,62,0.00,,,0.00,meteohub,2013-11-20 23:32:00,
2013-11-20 18:37:00,44.8,32.5,30.45,NW,324,1.0,3.0,62,0.00,,,0.00,meteohub,2013-11-20 23:37:00,
2013-11-20 18:42:00,44.6,32.4,30.45,NW,323,1.0,3.0,62,0.00,,,0.00,meteohub,2013-11-20 23:42:00,
2013-11-20 18:47:00,44.4,32.5,30.45,NW,323,1.0,3.0,63,0.00,,,0.00,meteohub,2013-11-20 23:47:00,
2013-11-20 18:52:00,44.4,32.5,30.45,NW,319,0.0,3.0,63,0.00,,,0.00,meteohub,2013-11-20 23:52:00,
2013-11-20 18:57:00,44.2,32.9,30.45,North,355,1.0,3.0,64,0.00,,,0.00,meteohub,2013-11-20 23:57:00,
2013-11-20 19:02:00,44.2,32.9,30.45,North,5,0.0,3.0,64,0.00,,,0.00,meteohub,2013-11-21 00:02:00,
2013-11-20 19:07:00,44.2,33.3,30.45,North,5,0.0,2.0,65,0.00,,,0.00,meteohub,2013-11-21 00:07:00,
2013-11-20 19:12:00,43.9,32.9,30.45,North,5,0.0,2.0,65,0.00,,,0.00,meteohub,2013-11-21 00:12:00,
2013-11-20 19:17:00,43.9,33.3,30.45,North,5,0.0,2.0,66,0.00,,,0.00,meteohub,2013-11-21 00:17:00,
2013-11-20 19:22:00,43.9,33.3,30.45,WSW,244,1.0,1.0,66,0.00,,,0.00,meteohub,2013-11-21 00:22:00,
2013-11-20 19:27:00,43.9,33.3,30.45,WNW,292,0.0,3.0,66,0.00,,,0.00,meteohub,2013-11-21 00:27:00,
2013-11-20 19:32:00,43.7,33.4,30.46,WNW,292,0.0,3.0,67,0.00,,,0.00,meteohub,2013-11-21 00:32:00,
2013-11-20 19:37:00,43.5,33.3,30.46,WNW,292,1.0,3.0,67,0.00,,,0.00,meteohub,2013-11-21 00:37:00,
2013-11-20 19:42:00,43.5,33.6,30.45,WNW,302,0.0,2.0,68,0.00,,,0.00,meteohub,2013-11-21 00:42:00,
2013-11-20 19:47:00,43.7,34.2,30.45,West,267,2.0,3.0,69,0.00,,,0.00,meteohub,2013-11-21 00:47:00,
2013-11-20 19:52:00,43.9,34.3,30.45,West,264,1.0,4.0,69,0.00,,,0.00,meteohub,2013-11-21 00:52:00,
2013-11-20 19:57:00,44.1,34.5,30.46,WSW,245,1.0,4.0,69,0.00,,,0.00,meteohub,2013-11-21 00:57:00,
2013-11-20 20:02:00,44.1,34.5,30.46,West,274,0.0,4.0,69,0.00,,,0.00,meteohub,2013-11-21 01:02:00,
2013-11-20 20:07:00,44.1,34.9,30.46,West,273,1.0,3.0,70,0.00,,,0.00,meteohub,2013-11-21 01:07:00,
2013-11-20 20:12:00,44.1,34.9,30.47,WNW,283,0.0,3.0,70,0.00,,,0.00,meteohub,2013-11-21 01:12:00,
2013-11-20 20:17:00,44.1,35.2,30.46,North,5,0.0,4.0,71,0.00,,,0.00,meteohub,2013-11-21 01:17:00,
2013-11-20 20:22:00,43.9,35.1,30.47,South,184,0.0,4.0,71,0.00,,,0.00,meteohub,2013-11-21 01:22:00,
2013-11-20 20:27:00,43.9,35.4,30.48,South,185,1.0,2.0,72,0.00,,,0.00,meteohub,2013-11-21 01:27:00,
2013-11-20 20:32:00,43.9,35.8,30.48,WNW,291,0.0,2.0,73,0.00,,,0.00,meteohub,2013-11-21 01:32:00,
2013-11-20 20:37:00,43.9,35.8,30.48,WNW,297,0.0,3.0,73,0.00,,,0.00,meteohub,2013-11-21 01:37:00,
2013-11-20 20:42:00,43.9,36.1,30.48,WNW,297,1.0,3.0,74,0.00,,,0.00,meteohub,2013-11-21 01:42:00,
2013-11-20 20:47:00,43.9,36.1,30.48,WNW,298,0.0,3.0,74,0.00,,,0.00,meteohub,2013-11-21 01:47:00,
2013-11-20 20:52:00,43.9,36.5,30.48,NNW,335,0.0,2.0,75,0.00,,,0.00,meteohub,2013-11-21 01:52:00,
2013-11-20 20:57:00,43.9,36.5,30.48,NE,43,1.0,3.0,75,0.00,,,0.00,meteohub,2013-11-21 01:57:00,
2013-11-20 21:02:00,43.9,36.5,30.48,NNE,15,2.0,3.0,75,0.00,,,0.00,meteohub,2013-11-21 02:02:00,
2013-11-20 21:07:00,43.9,36.9,30.48,NNE,14,2.0,3.0,76,0.00,,,0.00,meteohub,2013-11-21 02:07:00,
2013-11-20 21:12:00,43.9,36.9,30.48,NNE,22,0.0,3.0,76,0.00,,,0.00,meteohub,2013-11-21 02:12:00,
2013-11-20 21:17:00,43.9,36.9,30.48,East,80,1.0,3.0,76,0.00,,,0.00,meteohub,2013-11-21 02:17:00,
2013-11-20 21:22:00,43.9,36.9,30.48,ESE,111,2.0,3.0,76,0.00,,,0.00,meteohub,2013-11-21 02:22:00,
2013-11-20 21:27:00,43.7,37.0,30.47,East,100,0.0,3.0,77,0.00,,,0.00,meteohub,2013-11-21 02:27:00,
2013-11-20 21:32:00,43.7,37.0,30.47,East,93,1.0,3.0,77,0.00,,,0.00,meteohub,2013-11-21 02:32:00,
2013-11-20 21:37:00,43.5,36.9,30.47,East,93,0.0,3.0,77,0.00,,,0.00,meteohub,2013-11-21 02:37:00,
2013-11-20 21:42:00,43.3,36.9,30.47,ESE,107,0.0,2.0,78,0.00,,,0.00,meteohub,2013-11-21 02:42:00,
2013-11-20 21:47:00,43.3,36.9,30.47,ESE,107,0.0,2.0,78,0.00,,,0.00,meteohub,2013-11-21 02:47:00,
2013-11-20 21:52:00,43.2,37.0,30.48,ESE,117,0.0,2.0,79,0.00,,,0.00,meteohub,2013-11-21 02:52:00,
2013-11-20 21:57:00,43.2,37.0,30.48,ENE,61,2.0,2.0,79,0.00,,,0.00,meteohub,2013-11-21 02:57:00,
2013-11-20 22:02:00,43.0,36.9,30.48,NE,36,0.0,3.0,79,0.00,,,0.00,meteohub,2013-11-21 03:02:00,
2013-11-20 22:07:00,43.0,36.9,30.47,NE,36,0.0,3.0,79,0.00,,,0.00,meteohub,2013-11-21 03:07:00,
2013-11-20 22:12:00,42.8,37.0,30.47,NE,40,0.0,3.0,80,0.00,,,0.00,meteohub,2013-11-21 03:12:00,
2013-11-20 22:17:00,42.6,36.9,30.47,NE,42,1.0,2.0,80,0.00,,,0.00,meteohub,2013-11-21 03:17:00,
2013-11-20 22:22:00,42.6,37.2,30.47,NE,47,1.0,2.0,81,0.00,,,0.00,meteohub,2013-11-21 03:22:00,
2013-11-20 22:27:00,42.4,37.0,30.47,NE,47,0.0,2.0,81,0.00,,,0.00,meteohub,2013-11-21 03:27:00,
2013-11-20 22:32:00,42.4,37.0,30.47,NE,47,0.0,2.0,81,0.00,,,0.00,meteohub,2013-11-21 03:32:00,
2013-11-20 22:37:00,42.3,37.2,30.47,NE,47,0.0,2.0,82,0.00,,,0.00,meteohub,2013-11-21 03:37:00,
2013-11-20 22:42:00,42.3,37.2,30.47,SSW,206,2.0,4.0,82,0.00,,,0.00,meteohub,2013-11-21 03:42:00,
2013-11-20 22:47:00,41.9,37.0,30.47,WSW,258,0.0,4.0,83,0.00,,,0.00,meteohub,2013-11-21 03:47:00,
2013-11-20 22:52:00,41.7,36.9,30.47,WSW,258,0.0,4.0,83,0.00,,,0.00,meteohub,2013-11-21 03:52:00,
2013-11-20 22:57:00,41.5,37.0,30.47,WSW,258,0.0,2.0,84,0.00,,,0.00,meteohub,2013-11-21 03:57:00,
2013-11-20 23:02:00,41.5,37.0,30.47,WSW,258,0.0,1.0,84,0.00,,,0.00,meteohub,2013-11-21 04:02:00,
2013-11-20 23:07:00,41.4,36.9,30.47,NW,307,1.0,2.0,84,0.00,,,0.00,meteohub,2013-11-21 04:07:00,
2013-11-20 23:12:00,41.4,37.2,30.48,NW,311,2.0,3.0,85,0.00,,,0.00,meteohub,2013-11-21 04:12:00,
2013-11-20 23:17:00,41.4,37.2,30.48,NW,314,2.0,3.0,85,0.00,,,0.00,meteohub,2013-11-21 04:17:00,
2013-11-20 23:22:00,41.2,37.0,30.48,NW,319,3.0,3.0,85,0.00,,,0.00,meteohub,2013-11-21 04:22:00,
2013-11-20 23:27:00,41.2,37.0,30.48,NW,320,3.0,3.0,85,0.00,,,0.00,meteohub,2013-11-21 04:27:00,
2013-11-20 23:32:00,41.2,37.0,30.48,NW,321,3.0,3.0,85,0.00,,,0.00,meteohub,2013-11-21 04:32:00,
2013-11-20 23:37:00,41.2,37.0,30.48,NW,319,3.0,4.0,85,0.00,,,0.00,meteohub,2013-11-21 04:37:00,
2013-11-20 23:42:00,41.0,36.9,30.48,NW,325,2.0,4.0,85,0.00,,,0.00,meteohub,2013-11-21 04:42:00,
2013-11-20 23:47:00,40.8,36.7,30.48,NW,324,2.0,4.0,85,0.00,,,0.00,meteohub,2013-11-21 04:47:00,
2013-11-20 23:52:00,40.6,36.5,30.48,NW,324,2.0,4.0,85,0.00,,,0.00,meteohub,2013-11-21 04:52:00,
2013-11-20 23:57:00,40.5,36.7,30.48,NW,323,2.0,3.0,86,0.00,,,0.00,meteohub,2013-11-21 04:57:00,